Location: Aragüita
(10.0436°N, 67.8028°W)
Time: 13:11:30
(UTC+00:00)

Cosmos 1862 Rocket - Pass Details

Date: 20 January 2026
Orbit: 596 x 627 km, 82.5° (Epoch: 8 February)

Event Time Altitude Azimuth Distance (km) Brightness Sun altitude
Rises 09:53:37 0° 20° (NNE) 2,829 7.0 -14.7°
Reaches altitude 10° 09:56:20 10° 38° (NE) 1,926 6.3 -14.1°
Maximum altitude 09:59:24 19° 84° (E) 1,419 6.3 -13.4°
Drops below altitude 10° 10:02:27 10° 130° (SE) 1,926 7.3 -12.7°
Sets 10:05:10 0° 148° (SSE) 2,829 7.8 -12.1°
